Weather Roundup
Issued by NWS Springfield, MO

Home | Current Version | Previous Version | Text Only | Print | Product List | Glossary On
Versions: 1 2 3 4 5 6 7 8 9 10 11 12 13 14 15 16 17 18 19 20 21 22 23 24 25 26 27 28 29 30 31 32 33 34 35 36 37 38 39 40 41 42 43 44 45 46 47 48 49 50
000
NZUS99 KSGF 280959
HRRSGF

HOURLY WEATHER
NATIONAL WEATHER SERVICE SPRINGFIELD MO
500 AM CDT TUE JUL 28 2015

......SGF CWA......

CITY           SKY/WX    TMP DP  RH WIND       PRES   REMARKS
SPRINGFIELD    CLEAR     78  73  84 S8        29.94R
JOPLIN         CLEAR     79  72  79 S9        29.92R
WEST PLAINS    CLEAR     76  71  85 SW3       29.98R
ROLLA          CLEAR     75  73  93 S8        29.94R
OSAGE BEACH    CLEAR     75  72  88 CALM      29.93S

......SURROUNDING SGF CWA......

CITY           SKY/WX    TMP DP  RH WIND       PRES   REMARKS
CHANUTE        CLEAR     79  75  87 S7        29.89R
PARSONS        CLEAR     79  76  90 S6        29.91R
COFFEYVILLE    CLEAR     78  76  93 S7        29.88S
EMPORIA        CLEAR     76  72  87 S10       29.87R
GROVE OK       CLEAR     79  73  83 CALM      29.93R
SILOAM SPRINGS CLEAR     77  66  69 SE5       29.94R
HARRISON AR    CLEAR     78  69  73 CALM      29.96S
NEAR YELLVILLE CLEAR     73  70  88 CALM      29.92R

......KANSAS AND MISSOURI......

CITY           SKY/WX    TMP DP  RH WIND       PRES   REMARKS
KANSAS CTY INT CLEAR     76  74  93 SE8       29.88S
DOWNTOWN KC    CLEAR     81  74  79 S5        29.87R
COLUMBIA       PTCLDY    73  71  93 SE5       29.93S
SEDALIA        CLEAR     76  73  91 S6        29.92S
ST JOSEPH      CLEAR     75  72  90 SE3       29.86S
ST LOUIS       PTCLDY    77  71  82 CALM      29.94S
SPIRIT OF STL  CLEAR     73  73 100 CALM      29.92S
KIRKSVILLE     MOCLDY    73  69  87 SE7       29.93R
WICHITA        CLEAR     78  70  76 S9        29.87R
TOPEKA         CLEAR     78  74  87 S5        29.85S
OLATHE         CLEAR     77  74  90 S6        29.88S

......TENNESSEE......

CITY           SKY/WX    TMP DP  RH WIND       PRES   REMARKS
MEMPHIS        CLEAR     82  75  79 SW6       29.94S
NASHVILLE      MOCLDY    78  76  93 CALM      29.98R

......ARKANSAS.......

CITY           SKY/WX    TMP DP  RH WIND       PRES   REMARKS
FAYETTEVILLE   CLEAR     73  71  93 CALM      29.96S
FT SMITH       CLEAR     79  72  79 NE5       29.91R
LITTLE ROCK    CLEAR     81  74  79 SW5       29.93S

......OKLAHOMA.......

CITY           SKY/WX    TMP DP  RH WIND       PRES   REMARKS
TULSA          CLEAR     83  72  69 S9        29.88R
PONCA CITY     CLEAR     80  70  71 S6        29.88R
MCALESTER      MOCLDY    76  72  87 CALM      29.92S
OKLAHOMA CITY  CLEAR     75  69  81 S7        29.90R

......IOWA............

CITY           SKY/WX    TMP DP  RH WIND       PRES   REMARKS
DES MOINES     PTCLDY    74  69  85 S9        29.85F
QUAD CITIES    PTCLDY    71  68  90 E7        29.94S

......ILLINOIS........

CITY           SKY/WX    TMP DP  RH WIND       PRES   REMARKS
QUINCY         CLEAR     71  69  93 SE3       29.93S
CHICAGO        CLEAR     69  66  90 CALM      29.98F



USA.gov is the U.S. government's official web portal to all federal, state and local government web resources and services.